Regional Weather Roundup
Issued by NWS

Home | Current Version | Previous Version | Graphics & Text | Print | Product List | Glossary On
Versions: 1 2 3 4 5 6 7 8 9 10 11 12 13 14 15 16 17 18 19 20 21 22 23 24 25 26 27 28 29 30 31 32 33 34 35 36 37 38 39 40 41 42 43 44 45 46 47 48 49 50
000
ASUS45 KBOU 070607
RWRCO

WEATHER ROUNDUP FOR COLORADO
NATIONAL WEATHER SERVICE DENVER/BOULDER CO
1200 AM MDT THU MAY 07 2015

NOTE: "FAIR" INDICATES FEW OR NO CLOUDS BELOW 12000 FEET WITH NO
SIGNIFICANT WEATHER AND/OR OBSTRUCTIONS TO VISIBILITY.

COZ001>005-013-030-031-070700-
...NORTHWEST COLORADO...

CITY           SKY/WX    TMP DP  RH WIND       PRES   REMARKS
CRAIG          CLOUDY    47  40  76 NE7       29.86S
HAYDEN         CLOUDY    45  37  76 E7        29.87F
MEEKER         PTCLDY    42  38  85 NE8       29.88S
MOUNT WERNER   NOT AVBL
STEAMBOAT SPGS CLOUDY    44  39  83 CALM      29.89F
WALDEN         CLOUDY    41  34  75 S12       29.92R
$$

COZ006>008-011-070700-
...WEST CENTRAL VALLEYS...

CITY           SKY/WX    TMP DP  RH WIND       PRES   REMARKS
GRAND JUNCTION PTCLDY    46  45  96 E5        29.83R
MONTROSE       CLOUDY    49  45  86 SW6       29.91R
EAGLE          MOCLDY    43  41  93 E6        29.94S
RIFLE          CLEAR     43  40  89 CALM      29.89R
DELTA          CLOUDY    53  46  78 E3        29.89R
NUCLA          CLOUDY    52  36  54 W10       29.92S
$$

COZ017>023-064>068-070700-
...SOUTHWEST COLORADO...

CITY           SKY/WX    TMP DP  RH WIND       PRES   REMARKS
DURANGO        PTCLDY    43  41  93 CALM      29.96R
CORTEZ         MOCLDY    51  41  68 S8        29.89R
PAGOSA SPRINGS CLOUDY    42  40  95 NE7       30.02R
TELLURIDE      CLOUDY    39  34  83 CALM      30.05R
WOLF CREEK PAS NOT AVBL
$$

COZ009-010-012-014-032>034-037-058>063-070700-
...CENTRAL COLORADO...

CITY           SKY/WX    TMP DP  RH WIND       PRES   REMARKS
ASPEN          MOCLDY    40  37  89 SW3       29.95S
BUENA VISTA    NOT AVBL
COPPER MTN     FLURRIES  34  30  86 SW7       30.08S WCI  28
BERTHOUD PASS  CLOUDY    25  18  74 NW26G33   30.07F WCI   9
COTTONWOOD PAS FLURRIES  41  32  70 SW15G22   30.01S
GUNNISON       PTCLDY    43  36  75 N6        29.99S
KREMMLING      CLOUDY    45  32  61 SW8       29.94R
LEADVILLE      CLOUDY    35  29  78 NW3       30.00R
MONARCH PASS   CLOUDY    30  28  93 MISG      30.18S
SALIDA         PTCLDY    48  35  60 W7        30.00S
SUNLIGHT       CLOUDY    34  32  93 CALM      30.06S
WILKERSON PASS MOCLDY    32  28  86 SW8       30.07S WCI  25
$$

COZ069>075-070700-
...SAN LUIS VALLEY/SANGRE DE CRISTO MOUNTAINS...

CITY           SKY/WX    TMP DP  RH WIND       PRES   REMARKS
ALAMOSA        CLOUDY    47  35  63 S14       29.97R
LA VETA PASS   CLOUDY   N/A N/A N/A MISG      30.02R
SAGUACHE       CLOUDY    43  37  81 W3        29.98R
$$

COZ035-036-038>040-070700-
...NORTHERN COLORADO FRONT RANGE...

CITY           SKY/WX    TMP DP  RH WIND       PRES   REMARKS
DENVER INTL AP CLOUDY    50  48  93 N8        29.85R
DMNS CITY PARK   N/A     51  47  87 N3        29.85S
AURORA         CLOUDY    49  49 100 W1        29.87R
FRONT RANGE AP CLOUDY    52  50  93 N8        29.87R
ERIE MUNI ARPT CLOUDY    50  49  96 CALM      29.85S
BOULDER MUN AP CLOUDY    52  48  87 CALM      29.85R
CENTENNIAL     CLOUDY    50  47  89 N6        29.87R
BROOMFIELD     CLOUDY    50  46  87 CALM      29.87R
FORT COLLINS   CLOUDY    48  45  87 N7        29.87R
LONGMONT       CLOUDY    54  49  85 CALM      29.86R
$$

COZ041-046-047-076>085-087-088-070700-
...PIKES PEAK/PALMER DIVIDE AND SOUTHERN FOOTHILLS...

CITY           SKY/WX    TMP DP  RH WIND       PRES   REMARKS
COLO. SPRINGS  CLOUDY    50  45  83 N14       29.87R
A. F. ACADEMY  CLOUDY    45  45  99 N8        29.87R
ELLICOTT       CLOUDY   N/A N/A N/A E9        29.84R
FALCON         CLOUDY    47  44  91 NE9       29.89R
FORT CARSON    MOCLDY    47  44  90 NW10      29.83R
LIMON          LGT RAIN  50  48  93 N12       29.82S
MONUMENT HILL  NOT AVBL
TRINIDAD       MOCLDY    53  38  56 SW10      29.86R
$$

COZ042>045-048>051-090-091-070700-
...NORTHEAST COLORADO...

CITY           SKY/WX    TMP DP  RH WIND       PRES   REMARKS
GREELEY ARPT     N/A    N/A N/A N/A MISG        N/A
AKRON          CLOUDY    49  48  97 N22       29.78F
BURLINGTON     CLOUDY    56  51  84 NW8       29.76R
WRAY           LGT RAIN  55  52  88 NW20G28   29.73S
STERLING       DRIZZLE   50  46  87 N17       29.78F
HOLYOKE        NOT AVBL
FORT MORGAN    CLOUDY    48  46  90 N16       29.81S
$$

COZ086-089-092>099-070700-
...SOUTHEAST COLORADO...

CITY           SKY/WX    TMP DP  RH WIND       PRES   REMARKS
PUEBLO         CLOUDY    51  49  92 S3        29.78S
LA JUNTA       PTCLDY    53  47  79 W9        29.75S
LAMAR          PTCLDY    52  51  97 SW7       29.72R
SPRINGFIELD      N/A     49  48  97 SW9       29.79R
$$


USA.gov is the U.S. government's official web portal to all federal, state and local government web resources and services.